Satellite-Ground Cal/Val Site Overpasses Predictions

Prediction of Satellite NPP Overpassing Cal/Val Site: Antarctic Dome C

Ground Cal/Val Site Location: Latitude: -75.10, Longitude: 123.35; Satellite-Ground Site NADIR distance within 100 km.

Table of predicted overpasses for the next 14.0 days since TLE Epoch: 6/11/2022
Interval Starting Time Ending Time Minimum Distance Time Minimum Distance (km)
1 06/11/2022 07:43:46 06/11/2022 07:44:07 06/11/2022 07:43:57 67.49
2 06/12/2022 07:24:55 06/12/2022 07:25:21 06/12/2022 07:25:08 40.54
3 06/14/2022 15:07:23 06/14/2022 15:07:33 06/14/2022 15:07:28 93.41
4 06/15/2022 14:48:25 06/15/2022 14:48:54 06/15/2022 14:48:40 17.69
5 06/17/2022 07:31:17 06/17/2022 07:31:46 06/17/2022 07:31:31 3.52
6 06/20/2022 14:54:47 06/20/2022 14:55:16 06/20/2022 14:55:02 19.48
7 06/21/2022 14:36:07 06/21/2022 14:36:21 06/21/2022 14:36:14 87.34
8 06/22/2022 07:37:40 06/22/2022 07:38:08 06/22/2022 07:37:54 33.37
